Wind_Speed
21 19 19 18 17 16 13 11 10 8 7 6 5 5 5 4 4 3 3 3 3 3 3 4 5 6 6 6 7 7 7 7 7 6 6 5 5 4 4 4 5 5 6 7 9 9 9 8 8
22 21 20 20 19 17 14 12 10 9 8 7 5 5 4 3 3 2 2 2 3 3 3 4 5 6 7 7 8 8 8 7 7 7 6 5 5 4 4 4 5 5 6 8 8 8 8 7 7
23 23 22 21 20 18 15 13 12 10 9 7 6 5 5 3 2 2 1 1 2 2 3 4 5 6 7 8 8 8 8 8 7 6 6 5 5 5 5 5 5 6 7 7 7 7 7 6 6
25 24 23 23 21 19 16 14 13 12 10 8 7 6 5 4 3 3 1 1 2 3 3 4 5 6 7 8 8 8 8 8 7 7 6 6 5 5 5 5 5 6 6 7 7 6 6 5 5
27 26 25 24 23 21 18 16 15 13 11 9 7 7 6 4 4 4 3 2 2 3 4 5 5 6 7 8 8 8 9 9 8 7 6 6 6 5 5 5 5 6 6 6 6 5 4 4 3
28 27 26 25 24 23 20 18 16 14 12 10 8 7 7 5 5 4 4 3 3 4 4 5 6 6 7 8 9 9 9 9 8 7 6 6 6 6 5 5 5 5 5 5 5 4 3 2 1
29 28 27 26 26 24 22 20 17 15 13 11 10 9 8 6 6 6 5 5 4 4 5 6 6 7 7 9 9 9 9 9 8 7 7 6 6 6 6 6 5 5 5 5 4 3 2 1 1
31 29 28 27 26 25 24 22 19 17 15 12 11 10 8 7 6 7 7 6 6 6 5 6 7 8 8 9 9 9 9 8 8 8 7 7 7 7 6 6 6 6 5 5 4 3 3 3 3
34 32 28 27 27 25 25 23 21 19 16 14 12 11 9 8 7 8 8 7 7 7 6 7 8 8 9 9 10 9 9 9 8 8 8 8 8 7 7 7 6 6 6 5 5 5 5 5 5
36 32 29 29 29 27 26 25 23 21 18 16 14 13 11 10 8 8 8 8 8 8 8 8 8 9 9 9 9 9 9 9 10 10 9 9 9 8 8 8 7 7 7 7 7 7 7 7 8
38 34 31 31 30 29 27 26 24 22 20 18 17 15 13 11 10 9 9 9 9 8 8 9 9 9 9 10 10 10 10 10 11 11 10 10 10 10 9 9 9 9 9 8 9 9 9 10 10
40 36 34 33 32 31 29 28 26 24 22 20 19 17 15 13 11 10 10 10 10 10 10 10 10 10 10 11 11 11 11 12 12 12 11 11 11 11 11 11 11 11 11 11 11 11 12 12 13
44 40 38 36 35 33 32 30 28 26 24 23 21 19 17 15 13 12 11 11 11 11 11 11 11 11 12 12 12 12 13 13 13 13 12 12 13 13 12 12 12 13 13 13 13 14 14 15 15
46 44 42 40 39 36 34 33 30 27 26 25 23 21 20 18 16 14 13 12 12 12 12 12 12 12 13 13 13 13 14 14 14 14 14 14 14 14 14 14 14 15 15 15 15 16 17 17 18
49 47 46 44 42 39 38 35 30 29 29 27 25 23 22 20 19 17 16 14 13 13 12 12 13 13 14 14 14 15 15 15 16 16 16 16 16 16 16 16 16 17 17 18 18 19 19 20 21
52 51 50 47 44 42 41 36 31 32 31 29 27 25 23 22 21 19 18 17 16 15 14 14 13 14 14 15 16 16 16 16 17 17 18 18 18 18 18 18 18 19 20 20 21 21 22 23 24
56 56 54 49 47 46 45 39 33 35 33 31 29 27 26 24 22 21 20 19 18 17 16 15 15 15 15 16 16 17 18 18 19 19 20 20 20 20 20 21 21 21 22 23 23 24 25 26 27
58 57 55 51 48 48 47 42 37 38 36 33 31 29 27 25 23 23 22 20 19 19 18 17 17 17 17 16 17 18 19 20 20 21 21 21 22 22 22 23 23 24 24 25 26 27 28 29 30
56 56 55 52 50 51 50 47 42 41 40 36 34 31 29 26 26 25 23 21 20 20 20 19 19 19 18 18 18 19 20 21 21 21 22 22 23 23 24 25 26 26 27 28 28 29 30 31 32
56 56 56 54 52 53 53 52 47 46 43 40 37 35 31 29 28 26 26 24 22 22 22 21 21 21 20 21 21 21 21 20 21 21 22 23 24 25 26 27 28 28 29 30 31 32 33 34 35
58 56 55 54 53 55 56 57 52 48 46 43 41 38 35 31 29 28 27 27 25 23 23 23 23 23 23 23 23 22 22 21 21 23 25 26 26 27 28 29 30 30 31 32 34 35 36 37 38
60 57 55 55 55 56 58 61 55 51 49 47 44 41 37 34 33 31 29 28 26 26 26 25 25 25 24 25 24 24 24 23 25 26 27 27 27 28 29 30 31 32 33 34 36 37 38 39 40
58 57 56 56 56 58 59 63 61 54 51 48 45 43 40 37 36 34 32 30 29 29 28 27 27 26 26 26 26 26 25 25 27 28 28 29 30 30 31 32 32 33 35 36 38 39 40 41 42
57 57 57 58 59 63 61 64 66 58 52 48 46 45 42 40 39 37 36 34 32 31 30 29 28 28 28 28 28 28 27 28 30 30 31 31 32 32 33 34 35 36 37 38 40 41 42 43 44
58 59 59 60 63 67 64 67 68 60 53 50 47 45 43 41 40 39 38 36 34 33 32 32 31 30 30 30 30 29 30 31 32 32 33 34 34 34 35 37 38 39 40 41 42 43 44 46 47
58 60 61 62 64 65 66 69 67 62 56 52 48 46 45 43 42 41 39 39 37 36 35 34 33 32 32 32 31 32 32 33 33 33 35 36 36 37 38 40 40 41 42 43 45 46 46 48 49
58 60 58 59 61 63 67 67 66 63 60 55 51 49 47 46 45 44 43 41 40 39 38 37 36 35 35 34 34 35 35 35 35 36 37 37 38 39 40 42 43 44 45 46 47 48 49 50 51
59 57 58 60 60 61 65 67 66 62 60 59 56 52 49 48 47 46 46 44 43 41 40 40 40 38 38 38 37 37 37 37 38 39 39 40 41 42 43 44 45 47 48 49 50 51 52 53 54
60 60 59 59 60 61 63 64 61 59 58 56 55 54 52 50 50 49 48 48 46 45 44 43 42 42 41 41 40 40 40 40 41 42 42 43 44 45 46 47 48 50 51 52 54 54 55 56 57
59 60 61 62 62 61 62 61 56 56 55 55 54 53 52 51 50 49 49 48 47 47 46 46 45 44 44 44 44 43 43 43 44 44 45 46 47 48 49 50 52 53 54 55 56 57 58 58 59
Wind_Direction
219 221 222 223 226 226 229 234 242 249 258 270 285 298 310 320 328 340 1 28 47 57 73 91 99 109 115 119 122 126 128 134 131 130 130 127 126 128 124 122 122 120 118 119 119 117 113 108 102
222 223 225 227 228 227 229 236 242 249 256 266 278 288 299 306 312 337 19 39 55 71 94 106 114 115 118 124 126 126 128 131 130 130 132 132 134 136 129 128 126 123 122 123 122 119 116 111 103
225 225 227 229 229 230 231 235 240 245 251 261 270 280 290 289 286 297 15 61 78 99 113 119 126 127 127 132 134 133 130 132 132 134 137 140 142 142 139 132 129 128 127 128 127 124 121 112 102
226 227 229 231 232 233 235 236 240 243 248 256 265 275 283 276 265 263 246 166 141 138 134 132 135 133 138 140 143 144 141 141 138 136 139 147 149 149 148 141 137 136 136 136 132 129 124 114 101
227 227 229 232 235 236 237 239 240 243 247 252 260 270 276 265 254 250 241 205 175 164 155 150 149 145 146 148 150 151 147 147 147 148 149 154 156 156 156 152 149 147 146 144 139 136 129 118 102
229 229 229 231 235 238 240 241 241 243 247 249 257 265 268 257 247 243 240 218 192 181 174 169 165 162 157 155 154 153 150 151 154 157 159 161 164 166 166 164 161 159 157 155 153 150 143 134 106
229 229 230 232 235 238 243 243 243 243 247 248 250 259 262 254 242 241 239 221 206 195 184 177 174 172 168 165 163 161 161 162 166 169 172 176 178 177 177 175 173 172 173 174 175 177 178 200 285
231 230 231 233 236 237 241 243 243 242 244 246 249 256 259 253 243 241 240 225 213 206 195 186 180 178 176 174 174 174 175 176 178 180 181 183 186 187 189 189 188 189 192 196 203 211 227 256 282
232 232 231 234 236 236 238 240 241 242 242 244 247 252 252 249 243 241 240 232 220 214 206 196 189 186 184 183 186 188 188 189 189 187 187 191 195 198 201 203 205 207 212 219 228 239 254 270 284
233 233 232 234 236 236 236 238 240 242 242 242 244 247 248 246 242 241 240 236 227 218 212 204 199 197 194 195 197 198 198 198 197 195 195 199 203 208 211 215 220 223 229 236 243 254 265 276 285
234 234 233 234 236 236 236 237 239 241 242 242 243 243 245 244 241 241 239 236 231 224 218 213 210 208 207 207 208 207 206 206 204 204 205 208 212 216 220 224 229 233 239 246 254 264 272 279 286
235 234 233 234 236 237 237 237 238 239 240 241 243 244 244 244 241 239 239 237 232 229 225 221 219 219 219 220 220 218 216 214 213 213 215 218 221 225 229 232 237 242 246 253 260 268 274 280 286
236 235 235 235 236 238 238 237 238 238 240 241 243 245 244 243 242 240 240 238 235 233 232 230 228 229 229 229 228 227 224 221 221 222 226 229 231 233 236 239 243 247 251 257 264 270 276 281 286
236 236 236 235 237 238 238 237 237 238 240 240 242 244 245 243 242 241 240 239 238 236 236 238 236 235 235 234 233 233 231 228 227 230 234 237 239 241 243 245 248 251 256 261 267 273 277 281 286
235 235 235 236 237 238 239 237 237 239 241 240 241 243 244 244 242 242 242 242 242 240 239 240 239 238 238 238 237 237 236 236 235 236 239 242 244 245 247 250 253 256 259 263 268 273 278 282 286
235 235 235 235 238 239 239 237 237 240 242 242 241 243 244 244 243 243 243 243 244 244 243 242 241 239 239 240 239 240 240 242 242 242 243 244 247 249 251 253 256 260 263 267 270 274 278 282 285
235 236 236 236 238 240 241 238 238 242 243 243 242 242 244 244 245 245 243 243 245 246 246 245 244 243 243 243 242 242 243 245 246 247 247 248 249 251 253 255 259 262 265 269 272 275 278 282 285
235 237 238 238 240 243 243 241 239 243 243 242 242 243 244 245 246 246 245 244 245 246 247 247 247 246 246 246 246 245 244 246 248 250 252 253 254 254 255 257 260 264 267 270 273 275 278 282 285
238 238 239 240 240 242 243 241 238 241 243 242 242 244 244 245 246 247 249 249 247 248 248 248 248 248 248 247 246 246 247 249 252 255 256 257 257 257 258 260 262 265 268 271 274 276 279 282 284
237 238 239 240 241 242 242 242 239 240 242 243 242 243 245 245 247 249 250 251 250 249 250 250 250 250 249 249 249 250 253 256 257 258 259 257 257 258 260 262 264 267 269 272 274 277 280 282 285
236 238 239 242 243 244 244 243 240 240 242 243 243 244 245 247 248 249 251 252 251 250 250 250 250 250 251 252 253 255 256 258 258 258 257 258 259 261 263 264 267 269 271 273 276 278 280 282 285
237 238 241 243 244 245 245 246 239 240 241 242 244 245 246 247 248 249 251 253 253 251 249 250 252 252 252 255 256 257 257 258 258 258 260 262 264 265 266 266 268 270 272 274 276 278 281 283 285
238 238 241 243 245 246 245 247 240 239 240 241 244 246 247 248 249 250 251 252 253 253 252 252 254 255 256 258 259 259 259 259 259 261 263 264 265 265 266 268 268 270 272 274 276 278 280 283 285
236 237 239 242 244 245 244 248 244 238 240 242 243 245 247 249 250 251 251 252 253 254 254 254 255 257 258 259 261 262 261 260 261 263 263 264 266 267 269 270 270 271 273 275 276 279 281 283 285
234 235 237 240 242 246 245 248 245 240 240 242 244 245 247 248 250 251 252 253 253 253 254 255 255 257 258 259 260 262 263 263 264 264 265 266 267 269 269 270 272 273 274 276 278 280 282 283 285
236 237 238 240 244 248 247 248 246 246 244 244 245 246 247 249 250 251 252 253 253 253 255 256 257 259 259 260 260 261 263 265 266 266 266 267 269 269 270 271 273 274 275 276 278 279 281 282 284
235 237 239 242 245 247 248 249 248 247 248 247 247 248 249 250 251 252 252 253 253 254 255 257 258 259 260 261 261 262 263 265 266 266 266 268 269 269 270 271 272 274 275 276 278 279 281 282 283
235 238 238 240 242 245 247 248 248 248 250 251 251 251 251 251 252 252 253 253 254 254 255 257 259 260 261 261 262 263 264 264 265 266 267 268 268 268 269 271 272 273 274 275 277 279 280 282 283
234 234 236 239 242 244 248 250 250 252 252 252 252 253 253 253 253 253 253 253 254 255 256 258 259 259 260 261 262 263 264 264 265 266 267 267 268 268 270 271 272 273 274 275 276 278 279 280 282
235 236 237 238 241 245 249 251 251 252 252 252 252 253 253 253 253 253 254 254 255 255 257 258 258 259 259 260 262 263 264 265 266 266 266 267 267 268 269 270 271 273 273 274 276 277 278 280 281
Height
5873 5875 5877 5878 5880 5881 5882 5883 5883 5883 5883 5883 5884 5883 5883 5883 5883 5884 5881 5879 5879 5879 5878 5878 5879 5879 5879 5880 5881 5882 5883 5884 5885 5885 5886 5886 5887 5887 5887 5887 5887 5887 5887 5887 5887 5886 5886 5886 5886
5871 5873 5875 5876 5877 5879 5881 5882 5882 5882 5882 5883 5883 5882 5882 5882 5881 5881 5880 5879 5879 5879 5879 5879 5879 5880 5880 5881 5882 5883 5884 5885 5885 5886 5887 5887 5887 5888 5888 5888 5888 5888 5888 5888 5888 5887 5887 5887 5887
5868 5871 5873 5874 5875 5877 5879 5881 5881 5881 5881 5882 5882 5882 5882 5881 5881 5880 5880 5879 5879 5879 5880 5880 5880 5880 5881 5882 5883 5884 5885 5886 5886 5887 5887 5888 5888 5889 5889 5889 5889 5889 5889 5889 5888 5888 5888 5888 5887
5866 5868 5871 5872 5873 5875 5877 5879 5879 5880 5881 5881 5881 5881 5881 5881 5880 5880 5880 5879 5879 5879 5880 5880 5881 5881 5882 5882 5883 5884 5885 5886 5887 5888 5888 5889 5889 5889 5889 5889 5889 5889 5889 5889 5889 5889 5889 5889 5888
5862 5865 5868 5869 5870 5872 5874 5876 5878 5879 5879 5880 5880 5880 5880 5880 5880 5879 5879 5879 5879 5879 5880 5880 5881 5882 5882 5883 5884 5885 5886 5887 5887 5888 5889 5889 5889 5890 5890 5890 5890 5890 5890 5890 5890 5890 5890 5889 5889
5859 5862 5864 5866 5868 5870 5872 5874 5875 5877 5878 5878 5879 5879 5879 5879 5879 5879 5879 5879 5879 5879 5880 5880 5881 5882 5883 5883 5884 5885 5886 5887 5888 5888 5889 5889 5890 5890 5890 5890 5890 5890 5890 5891 5891 5891 5890 5890 5889
5856 5858 5860 5863 5864 5867 5869 5871 5873 5875 5876 5877 5877 5877 5877 5878 5879 5878 5878 5878 5879 5879 5880 5880 5881 5882 5883 5884 5884 5885 5886 5887 5888 5888 5889 5889 5890 5890 5890 5890 5890 5890 5891 5891 5891 5891 5890 5890 5889
5850 5855 5857 5859 5861 5864 5866 5868 5870 5873 5874 5875 5876 5876 5877 5877 5878 5878 5877 5878 5878 5879 5879 5880 5881 5882 5883 5883 5884 5885 5886 5887 5887 5888 5888 5889 5890 5890 5890 5890 5890 5890 5891 5891 5891 5890 5890 5889 5889
5845 5851 5853 5856 5858 5861 5863 5865 5867 5869 5871 5873 5874 5874 5875 5876 5876 5877 5877 5877 5878 5878 5879 5880 5880 5881 5882 5883 5884 5885 5886 5887 5887 5888 5888 5889 5889 5890 5890 5890 5890 5890 5890 5890 5890 5890 5889 5889 5888
5840 5845 5850 5852 5854 5857 5859 5861 5864 5866 5869 5870 5871 5872 5873 5874 5875 5875 5876 5876 5877 5878 5878 5879 5880 5881 5882 5883 5884 5884 5885 5886 5887 5887 5888 5888 5889 5889 5889 5890 5890 5890 5890 5890 5889 5889 5888 5888 5887
5835 5841 5845 5847 5850 5853 5855 5858 5860 5863 5866 5867 5868 5870 5870 5872 5873 5874 5874 5875 5876 5877 5877 5878 5879 5880 5881 5882 5883 5884 5884 5885 5886 5886 5887 5887 5888 5888 5888 5889 5889 5889 5889 5888 5888 5888 5887 5886 5885
5830 5835 5839 5842 5845 5848 5851 5854 5856 5859 5862 5864 5865 5867 5868 5869 5871 5872 5873 5873 5874 5875 5876 5877 5878 5879 5880 5881 5882 5883 5883 5884 5885 5885 5886 5886 5886 5887 5887 5887 5887 5887 5887 5887 5887 5886 5885 5885 5884
5823 5829 5833 5836 5839 5843 5846 5849 5852 5855 5858 5860 5862 5863 5865 5867 5868 5869 5870 5871 5872 5873 5874 5875 5876 5877 5878 5879 5880 5881 5882 5882 5883 5884 5884 5885 5885 5885 5885 5885 5886 5885 5885 5885 5885 5884 5883 5882 5881
5816 5821 5826 5830 5833 5837 5840 5844 5848 5851 5853 5856 5858 5860 5861 5863 5865 5867 5868 5869 5870 5871 5872 5873 5874 5875 5876 5877 5878 5879 5880 5880 5881 5882 5882 5883 5883 5883 5883 5883 5883 5883 5883 5883 5882 5882 5881 5880 5879
5807 5813 5818 5823 5827 5831 5834 5839 5844 5846 5848 5851 5854 5856 5858 5860 5862 5863 5865 5866 5868 5869 5870 5871 5872 5873 5874 5875 5876 5876 5877 5878 5879 5879 5880 5880 5881 5881 5881 5881 5881 5881 5880 5880 5879 5879 5878 5877 5875
5798 5804 5810 5817 5820 5824 5829 5834 5839 5839 5842 5847 5849 5852 5854 5856 5858 5860 5861 5863 5864 5866 5867 5868 5869 5870 5870 5871 5872 5873 5874 5875 5876 5876 5877 5877 5877 5878 5878 5878 5878 5878 5877 5877 5876 5875 5874 5873 5872
5789 5795 5802 5809 5813 5816 5820 5828 5834 5834 5837 5841 5844 5847 5849 5852 5854 5856 5857 5859 5861 5862 5863 5864 5866 5866 5867 5868 5869 5870 5871 5872 5872 5873 5873 5874 5874 5874 5874 5874 5874 5874 5873 5873 5872 5871 5870 5869 5867
5782 5788 5794 5801 5806 5809 5813 5821 5827 5827 5830 5835 5838 5842 5845 5847 5850 5851 5853 5855 5857 5858 5859 5860 5861 5863 5864 5865 5865 5866 5867 5868 5868 5869 5870 5870 5870 5870 5870 5870 5870 5869 5869 5868 5867 5867 5865 5864 5862
5773 5778 5784 5792 5797 5800 5804 5811 5818 5820 5823 5828 5832 5836 5840 5843 5844 5846 5849 5850 5852 5854 5855 5856 5857 5858 5859 5860 5861 5862 5862 5863 5864 5865 5866 5866 5866 5866 5866 5866 5865 5865 5864 5863 5863 5861 5860 5858 5856
5762 5768 5775 5781 5786 5789 5794 5799 5808 5812 5816 5822 5826 5830 5833 5837 5839 5842 5844 5845 5847 5848 5850 5851 5852 5853 5854 5855 5856 5857 5858 5859 5860 5860 5861 5861 5861 5861 5861 5861 5860 5860 5859 5858 5857 5855 5854 5852 5850
5751 5760 5767 5772 5776 5778 5782 5788 5797 5805 5809 5814 5819 5823 5827 5831 5834 5836 5838 5840 5841 5843 5844 5845 5846 5847 5849 5849 5851 5852 5853 5854 5855 5855 5855 5855 5855 5855 5856 5855 5855 5854 5853 5852 5850 5849 5847 5845 5843
5744 5754 5758 5761 5763 5767 5772 5774 5788 5796 5800 5806 5812 5816 5821 5825 5827 5830 5832 5834 5836 5837 5838 5839 5840 5842 5843 5844 5845 5846 5847 5849 5849 5848 5849 5849 5849 5849 5849 5849 5848 5847 5846 5845 5843 5842 5840 5838 5836
5738 5744 5747 5749 5752 5754 5759 5763 5775 5785 5792 5799 5805 5809 5813 5817 5820 5822 5825 5828 5829 5830 5831 5833 5834 5836 5837 5838 5839 5840 5841 5842 5842 5842 5843 5843 5842 5842 5842 5842 5841 5840 5839 5838 5836 5834 5832 5830 5828
5725 5730 5733 5735 5736 5739 5751 5753 5760 5776 5786 5792 5797 5801 5804 5808 5811 5814 5817 5819 5822 5823 5825 5826 5828 5829 5830 5831 5832 5833 5834 5835 5835 5835 5835 5835 5835 5835 5835 5834 5833 5832 5831 5830 5828 5826 5824 5822 5819
5710 5717 5721 5721 5721 5729 5742 5739 5750 5768 5776 5782 5788 5792 5795 5799 5802 5805 5808 5811 5814 5815 5817 5818 5820 5822 5823 5823 5825 5826 5826 5826 5827 5827 5827 5827 5827 5827 5827 5825 5824 5824 5822 5821 5819 5817 5815 5813 5810
5702 5706 5710 5713 5715 5723 5727 5728 5745 5756 5764 5771 5777 5782 5786 5789 5793 5796 5799 5801 5804 5806 5808 5810 5812 5813 5814 5815 5817 5817 5818 5818 5819 5819 5819 5818 5818 5819 5817 5816 5815 5814 5813 5811 5809 5807 5805 5803 5800
5689 5693 5702 5704 5705 5709 5710 5720 5734 5744 5751 5759 5767 5772 5776 5779 5783 5786 5788 5791 5794 5797 5799 5801 5803 5804 5805 5806 5807 5808 5809 5809 5810 5810 5809 5809 5809 5809 5807 5806 5805 5804 5802 5800 5798 5796 5794 5791 5789
5678 5685 5688 5689 5692 5695 5700 5709 5724 5736 5742 5748 5754 5759 5764 5768 5771 5775 5778 5781 5784 5786 5789 5791 5793 5795 5796 5797 5798 5799 5799 5800 5800 5800 5800 5799 5799 5798 5797 5796 5794 5793 5791 5789 5787 5785 5783 5780 5778
5667 5671 5675 5680 5682 5686 5690 5702 5718 5725 5730 5736 5741 5745 5750 5754 5758 5762 5766 5769 5772 5775 5778 5780 5782 5783 5785 5786 5787 5788 5789 5789 5789 5789 5789 5789 5788 5787 5786 5785 5783 5781 5780 5777 5775 5773 5771 5768 5765
5654 5660 5665 5669 5672 5677 5681 5694 5707 5713 5717 5722 5728 5733 5737 5741 5745 5749 5753 5756 5760 5763 5765 5768 5770 5772 5773 5774 5775 5776 5777 5777 5777 5778 5778 5777 5776 5775 5774 5772 5771 5770 5768 5765 5763 5760 5758 5755 5752